Startpagina
METAR-TAF:

METAR-TAF

Vliegvelden :

Chulitna, Alaska, Verenigde Staten

breedte: 62-53N, lengte: 149-50W, hoogte: 381 m

Actueel weer

Dit bericht is 12 uur en het 28 minuten geleden gemaakt, om 00:49 UTC
Wind 4 kt uit het noorden
Temperatuur 2°C
Vochtigheid 64%
Druk 982 hPa
Zicht: 48.3 km
Weinig wolken op 18000 ft

METAR: PAEC 180049Z 35004KT 30SM FEW180 02/M04 A2899 RMK NOSPECI LAST

Tijdstip: 05:17 (13:17 UTC)


TAF: ontbreekt

Waarnemingen en weersverwachtingen van meer dan 4000 vliegvelden (METAR en TAF).

De beschikbare stations zijn de gele en rode punten op de kaart.

Ga met uw muis naar het station om de naam te zien.

Klik dan om waarnemingen en weersverwachtingen te zien.

kaart wijzigen: klik op de groene knoppen met een zwart kruis om in te zoomen, op de groene knop met een streepje om uit te zoomen of op de groene pijlen voor aangrenzende kaarten.


METAR-TAF: